ข้อมูลล่าสุด:
21/01/2020 

แจ็คพอต

ข้อมูลแจ็คพอต ผู้ชนะ แจ็คพอต

Super royal flush jackpot กำลังจะเกิดขึ้นทีนี้

เข้าร่วมกับรางวัลระดับโลกปัจจุบันที่มีอยู่แล้วในเกมของเรากับระบบแจ็คพอตล่าสุดและผลตอบแทนที่ใหญ่กว่าที่คุณสามารถซื้อแจ็คพอตที่ราคาขนาดเล็กเป็น 100 ชิป

แจ็คพอตไม่ต้องซื้อ แต่เราให้เป็นคุณสมบัติพิเศษให้กับสมาชิกของ osgpoker.com

ระบบจะมีรางวัลโบนัสเพิ่มขึ้น osgpoker.com ให้ติดตาม

  1. Full House X 10 ราคาแจ็คพอตที่คุณจะซื้อ
      (ตัวอย่าง: คุณซื้อ 1,000 ชิพแล้ว: 1,000 X 10 = 10,000)
  2. Four of a Kind X 250 ราคาแจ็คพอตที่คุณจะซื้อ
      (ตัวอย่าง: คุณซื้อ 1,000 ชิพแล้ว: 1,000 x 250 = 250,000)
  3. Straight Flush x 1,200 ราคาแจ็คพอตที่คุณจะซื้อ
      ((ตัวอย่าง: คุณซื้อ 1,000 ชิพแล้ว: 1,000 x 1,200 = 1,200,000)
  4. Royal Flush X 10,000 ราคาแจ็คพอตที่คุณจะซื้อ
      (ตัวอย่าง: คุณซื้อ 1,000 ชิพแล้ว: 1,000 x 10,000 = 10,000,000)
  5. Super Royal Flush X 30,000 ราคาแจ็คพอตที่คุณจะซื้อ
      (ตัวอย่างเช่น: คุณซื้อ 0.1 แล้ว: 1,000 × 30,000 = 30,000,000)

เงื่อนไขการใช้บัตร:

  1. Full House เงื่อนไขในการที่บัตรของคุณและบัตรกลางมีทั้งหมด 7 บัตรจะได้รับไพ่ 5 ใบที่มีมูลค่ารวม 1 คู่ในไพ่สามใบ เช่น 3 ใบ 10 และ 2 ใบของ 5/li>
  2. Four of a Kind เงื่อนไขในการที่บัตรของคุณและบัตรกลางมีทั้งหมด 7 บัตรจะได้รับไพ่ 5 ใบที่มีมูลค่ารวมของไพ่ 4 ใบจำนวนเดียวกันและหนึ่ง (1) บัตร ตัวอย่างเช่นคุณจะได้รับ 4 ใบจาก 3 บัตร (3 S, 3 H, 3-C, 3-D) และบัตร 1 ของชนิด/li>
  3. เStraight Flush เงื่อนไขในการที่บัตรของคุณและบัตรกลางมีทั้งหมด 7 บัตรจะได้รับไพ่ 5 ใบที่มีดอกเดียวกันและมูลค่าต่อเนื่องเช่นบัตรของคุณอาจลำดับ 5-h, 6-h, 7-h, 8-h, 9-h 10-h.
  4. Royal Flush เงื่อนไขในการที่บัตรของคุณและบัตรกลางมีทั้งหมด 7 บัตรจะได้รับไพ่ 5 ใบที่มีดอกเดียวกันและมูลค่าต่อเนื่องกันกับการ์ดที่เล็กที่สุดในลำดับที่ 10 เช่น 10-s, J-s, Q-s, K-s, และ A-s.
  5. Super Royal flush เงื่อนไขที่ไพ่สองใบที่คุณมีอยู่ในมือรวมกับ 3 อันดับแรกเปิดไพ่บนโต๊ะที่มีอยู่แล้วรอยัลฟลัช ตัวอย่างเช่นครั้งแรกของคุณ 2 ใบในมือเป็น 10 และ Qs และอีก 3 บัตรทีโชว์อยู่บนโต๊ะเป็น J-s, K-s, และ A-s.

คำอธิบายดังกล่าวข้างต้นเป็นคำอธิบาย ของหลายแจ็คพอตที่osgpoker.comขอขอบคุณและขอแสดงความยินดีในการเล่นเกมของเรา เราหวังว่าทุกท่านโชคดี!

Texas Poker ผู้ชนะ แจ็คพอต

TOP SUPER ROYAL FLUSH
No.วันที่ชื่อราคาชนะ
121/01 15:23TANCAK11Super Royal flush34.090.91
221/01 12:38PENCARI_JPSuper Royal flush6.818.18
321/01 02:39BAJUL96Super Royal flush136.363.64
421/01 02:24D29BASA603Super Royal flush6.818.18
520/01 22:10ACDC240VSuper Royal flush34.090.91
TOP ROYAL FLUSH
No.วันที่ชื่อราคาชนะ
121/01 16:31INCUMBAH73Royal flush4.545.45
221/01 16:21M4J3U9_9ANRoyal flush11.363.64
321/01 16:02NURULOKT20Royal flush22.727.27
421/01 15:34MIEE5Royal flush11.363.64
521/01 15:05JPBOSS800Royal flush4.545.45
TOP STRAIGHT FLUSH
No.วันที่ชื่อราคาชนะ
121/01 16:43SAKAL99Straight Flush545.45
221/01 16:41JACCVOT_ZStraight Flush272.73
321/01 16:40ARTETA00Straight Flush2.727.27
421/01 16:40ZIGONStraight Flush545.45
521/01 16:37KATMEJA76Straight Flush545.45
P_LASTJACK
No.วันที่ชื่อราคาชนะ
121/01 16:46BELANG8888Full House11.36
221/01 16:46D66LIA356Full House4.55
321/01 16:46JANGE74Full House4.55
421/01 16:46FEE2C92FFull House11.36
521/01 16:46TEMPEKBELIFull House11.36
621/01 16:46RUDET02FULL_HOUSE0.45454545454545
721/01 16:46CACAM1233Full House4.55
821/01 16:46GIBRAN94FULL_HOUSE0.45454545454545
921/01 16:46RON23FULL_HOUSE0.45454545454545
1021/01 16:46HOKY470FULL_HOUSE0.45454545454545
1121/01 16:46ANWARFUADFULL_HOUSE2.27
1221/01 16:46E80F6021FULL_HOUSE0.45454545454545
1321/01 16:46FLO89FULL_HOUSE0.45454545454545
1421/01 16:46DBOW0JGS2MFull House22.73
1521/01 16:46D29O21290FOUR_OF_KIND2.27
1621/01 16:46SKYGGKENZOFull House4.55
1721/01 16:46MEKI79FULL_HOUSE0.45454545454545
1821/01 16:46LIONS66FULL_HOUSE0.45454545454545
1921/01 16:46KANGKAR29Full House22.73
2021/01 16:46D57A420357FULL_HOUSE0.45454545454545
2121/01 16:46TELOR6666FULL_HOUSE1.14
2221/01 16:46KELVINDIEGSTRAIGHT_FLUSH1.14
2321/01 16:46MILAN0606Full House4.55
2421/01 16:46SOKWAEFull House2.27
2521/01 16:46UKUTEMDUNGFull House2.27
2621/01 16:46DDJDMJB3IYFull House4.55
2721/01 16:46C8482804Full House4.55
2821/01 16:46HOKIEAJAHHFull House22.73
2921/01 16:46HELL0KITYFull House11.36
3021/01 16:46D58DUDUNG99685Full House11.36
3121/01 16:46KEISAH85FULL_HOUSE0.45454545454545
3221/01 16:46DIVA51273Full House22.73
3321/01 16:46LUCY_CAIRFull House2.27
3421/01 16:46TELER75FULL_HOUSE2.27
3521/01 16:46F47C2AA4Full House11.36
3621/01 16:46P4NDE2Full House4.55
3721/01 16:46TENTACIONFULL_HOUSE2.27
3821/01 16:46R715B24GH1FULL_HOUSE1.14
3921/01 16:46THE_QUEEN7Full House4.55
4021/01 16:45ABAH366Full House11.36
4121/01 16:45E13NDAS1945760FULL_HOUSE2.27
4221/01 16:45ANISABANI8FULL_HOUSE0.45454545454545
4321/01 16:45S1CICAGOFull House11.36
4421/01 16:45MONTI02Four Of A Kind284.09
4521/01 16:45JUM4ODV3H8Four Of A Kind568.18
4621/01 16:45REINZFULL_HOUSE1.14
4721/01 16:45KONTOP212FULL_HOUSE4.55
4821/01 16:45J4CKY6969Full House11.36
4921/01 16:45KOBENEDANFULL_HOUSE0.45454545454545
5021/01 16:45JOHAR1997FULL_HOUSE0.45454545454545
ข้อมูลแจ็คพอต ผู้ชนะ แจ็คพอต

Domino Multi Jackpot System

เข้าร่วมกับรางวัลระดับโลกในปัจจุบันที่มีอยู่แล้วในระบบของเรากับระบบแจ็คพอตใหม่ล่าสุดและเป็นครั้งแรกในประเทศอินโดนีเซียที่คุณสามารถซื้อแจ็คพอตในราคาเพียง 100 และมีโอกาสที่จะชนะ

แจ็คพ็อตไม่จำเป็นที่จะต้องซื้อ แต่เราให้มันเป็นคุณสมบัติพิเศษให้กับสมาชิกของ osgpoker.com

มีแจ็คพอต 4 ราคาที่คุณสามารถเลือกที่จะซื้อ: USD 100, 500, 1000 และ 2000 (เฉพาะโต๊ะวีไอพีพิเศษและด้านบน)

รางวัลแจ็คพอตหลายระบบใน osgpoker.com ดังต่อไปนี้:

  1. small Pure X 50 ราคาแจ็คพอตที่คุณจะซื้อ
      (ตัวอย่าง: คุณซื้อแล้ว 100 X 50 = 5000)
  2. Large Pure X 50 แจ็คพอตที่คุณจะซื้อ
      (ตัวอย่าง: คุณซื้อแล้ว 100 X 50 = 5000)
  3. Doublet X 0.01 ราคาแจ็คพอตที่คุณจะซื้อ
      (ตัวอย่าง: คุณซื้อแล้ว 100 X 1000 = 100000)
  4. Six Dewa X ราคา 6,666 แจ็คพอตที่ที่คุณจะซื้อ
      (ตัวอย่าง: คุณซื้อแล้ว 100 X 6666 = 666600)

คำอธิบายดังกล่าวข้างต้นเป็นคำอธิบาย ของหลายแจ็คพอตที่ osgpoker.com ขอขอบคุณและขอแสดงความยินดีในการเล่นเกมของเรา เราหวังว่าทุกท่านโชคดี!

Domino ผู้ชนะ แจ็คพอต

TOP ENAM DEWA
No.วันที่ชื่อราคาชนะ
121/01 16:37JOKER_0909murni enam15.150
221/01 12:35SCBBOD4TTmurni enam7.575
321/01 09:26SAMINHOmurni enam7.575
421/01 08:48YUKADmurni enam1.515
521/01 07:27GALANGSATmurni enam1.515
TOP BALAK
No.วันที่ชื่อราคาชนะ
121/01 16:45HAIRIL26balak113.64
221/01 16:45DATHUK123balak227.27
321/01 16:44MR_AYEbalak22.73
421/01 16:39RIDER04balak227.27
521/01 16:37ARSYAPRObalak227.27
P_LASTJACK
No.วันที่ชื่อราคาชนะ
121/01 16:46HARAPLAPORmurni besar56.82
221/01 16:45HAIRIL26balak113.64
321/01 16:45DATHUK123balak227.27
421/01 16:45RABUT99murni kecil113.64
521/01 16:44ETOO6666murni kecil113.64
621/01 16:44ALIL88murni kecil113.64
721/01 16:44KAY86murni besar113.64
821/01 16:44JHONPITAKmurni besar113.64
921/01 16:44MELAHAP30murni kecil113.64
1021/01 16:44MR_AYEbalak22.73
1121/01 16:44BETDEALmurni kecil11.36
1221/01 16:43JAKIRO2123murni kecil113.64
1321/01 16:43ARYAN999lucky993.181.82
1421/01 16:43KHILAF47murni besar113.64
1521/01 16:43ION8313DV6murni kecil56.82
1621/01 16:42MASDUKHI85murni besar113.64
1721/01 16:42SANDYBENTOmurni besar113.64
1821/01 16:41CACAGAUL59murni kecil56.82
1921/01 16:41WIRO505murni besar113.64
2021/01 16:41PROJOK878murni kecil113.64
2121/01 16:41MASDUKHI85murni kecil113.64
2221/01 16:41X6X6X6murni besar113.64
2321/01 16:41NDRE1008murni kecil11.36
2421/01 16:39RIDER04balak227.27
2521/01 16:39HAIRIL26murni besar56.82
2621/01 16:38MANDUS16murni kecil113.64
2721/01 16:38JEMSBONDmurni besar11.36
2821/01 16:37E04EWATA99365murni kecil11.36
2921/01 16:37JHONPITAKmurni besar113.64
3021/01 16:37DIVO86_murni besar113.64
3121/01 16:37ARSYAPRObalak227.27
3221/01 16:37JOKER_0909murni enam15.150
3321/01 16:36NABABAN04balak227.27
3421/01 16:36ANISYA22murni kecil113.64
3521/01 16:36REZEKIVEGAmurni besar56.82
3621/01 16:36KONGGGGGWmurni besar56.82
3721/01 16:36GIE290588murni kecil11.36
3821/01 16:35FITRIEEAHbalak227.27
3921/01 16:35HAMZ111balak22.73
4021/01 16:35RZQROCK99balak227.27
4121/01 16:35B18NA88381murni kecil113.64
4221/01 16:35D34WAR25955balak113.64
4321/01 16:34SAMINHOmurni besar56.82
4421/01 16:34ASYRAF2014murni kecil113.64
4521/01 16:34DUY07murni besar56.82
4621/01 16:34PETROASIAmurni kecil113.64
4721/01 16:34CAJUR_12murni besar113.64
4821/01 16:34FAISALL27lucky99113.64
4921/01 16:33KOMANG121murni besar113.64
5021/01 16:33KEAT171murni besar113.64
ข้อมูลแจ็คพอต ผู้ชนะ แจ็คพอต

JACKPOT WINNER CEME

แจ็คพอตที่รวมกันจากทั้งผู้เล่นและตัวแทนจำหน่าย ตัวแทนจำหน่ายควรซื้อรางวัลแจ็คพอตให้มากที่สุดเท่าที่จำนวนของผู้เล่นทุกคนที่กำลังเล่น ตัวอย่างเช่นถ้ามีผู้เล่น 3 คนที่กำลังนั่งอยู่ในการเล่นและตัวแทนจำหน่ายได้ตัดสินใจที่จะซื้อ 100

แจ็คพอตจากนั้นในช่วงเวลานี้ตัวแทนจำหน่ายที่จะซื้อรางวัลมากที่สุดเท่าที่ 3 X 100 = 300 เหรียญสหรัฐ

แจ็คพ็อตไม่จำเป็นที่จะต้องซื้อ แต่เราให้มันเป็นคุณสมบัติพิเศษให้กับสมาชิกของ osgpoker.com มีแจ็คพ็อต 3 ราคให้คุณสามารถเลือกที่จะซื้อคือ 100 เหรียญสหรัฐ, 500, และ 100

รางวัลแจ็คพอตหลายระบบใน osgpoker.com ดังต่อไปนี้:

  1. small Pure X 50 ราคาแจ็คพอตที่คุณจะซื้อ
      (ตัวอย่าง: คุณซื้อแล้ว 100 X 50 = 5000)
  2. Large Pure X 50 แจ็คพอตที่คุณจะซื้อ
      (ตัวอย่าง: คุณซื้อแล้ว 100X 50 = 5000)
  3. Doublet X 200 ราคาแจ็คพอตที่คุณจะซื้อ
      (ตัวอย่าง: คุณซื้อแล้ว 100x 200 = 20000)
  4. Six Dewa X ราคา 6,666 แจ็คพอตที่คุณจะซื้อ
      (ตัวอย่าง: คุณซื้อแล้ว 100 X 6666 = 666600)

คำอธิบายดังกล่าวข้างต้นเป็นคำอธิบาย ของหลายแจ็คพอต osgpoker.com ขอขอบคุณและขอแสดงความยินดีในการเล่นเกมของเรา เราหวังว่าทุกท่านโชคดี!

Ceme ผู้ชนะ แจ็คพอต

TOP ENAM DEWA
No.วันที่ชื่อราคาชนะ
121/01 16:40LIAAPRIL28murni enam1.515
221/01 16:32GASAK79murni enam1.515
321/01 16:19MYEVOmurni enam15.150
421/01 16:12VIRZIEPRO1murni enam15.150
521/01 16:12J0ZITTFQT5murni enam1.515
TOP BALAK
No.วันที่ชื่อราคาชนะ
121/01 16:45ELPRIYAbalak454.55
221/01 16:45AA1741balak454.55
321/01 16:45HOCLUBbalak454.55
421/01 16:45LIMUN26balak454.55
521/01 16:45SUKARMIN12balak227.27
P_LASTJACK
No.วันที่ชื่อราคาชนะ
121/01 16:46M4IK4Lmurni kecil113.64
221/01 16:45GARUDA076murni kecil11.36
321/01 16:45DAWEN878murni kecil113.64
421/01 16:45HELIOS9999murni kecil113.64
521/01 16:45HELIOS9999murni kecil113.64
621/01 16:45FERISTAmurni kecil56.82
721/01 16:45ELPRIYAbalak454.55
821/01 16:45SANKENNALYmurni kecil11.36
921/01 16:45AA1741balak454.55
1021/01 16:45OGIK998murni kecil113.64
1121/01 16:45V07murni kecil113.64
1221/01 16:45HOCLUBbalak454.55
1321/01 16:45LIMUN26balak454.55
1421/01 16:45SUKARMIN12balak227.27
1521/01 16:45KIMAYYbalak454.55
1621/01 16:45M4ESTROmurni besar113.64
1721/01 16:45ERHASmurni besar113.64
1821/01 16:45BASOHOKI57murni kecil113.64
1921/01 16:45DB4F9681murni kecil11.36
2021/01 16:45DEDEKAYATmurni kecil113.64
2121/01 16:45HELIOS9999murni kecil113.64
2221/01 16:45GARUDA076balak45.45
2321/01 16:45LENAbalak454.55
2421/01 16:45JOKY9999murni kecil113.64
2521/01 16:45MOGEEEEmurni kecil113.64
2621/01 16:45RINACONGmurni besar113.64
2721/01 16:45ASHIDAbalak227.27
2821/01 16:44P4RK1T717murni kecil56.82
2921/01 16:44REDHO3333murni besar113.64
3021/01 16:44DWBTB0D472murni besar113.64
3121/01 16:44ZC4XHXRB02murni kecil113.64
3221/01 16:44D98TH998987murni kecil113.64
3321/01 16:44ABAH009murni kecil56.82
3421/01 16:44SUKARMIN12murni kecil56.82
3521/01 16:44JALAK303murni kecil113.64
3621/01 16:44AZZAM_006balak454.55
3721/01 16:44NANGKA1999balak454.55
3821/01 16:44HAIRUN88balak454.55
3921/01 16:44HENDRI0977balak45.45
4021/01 16:44JOKPRAM73balak454.55
4121/01 16:44ARIR999balak227.27
4221/01 16:43GARUDA076murni besar11.36
4321/01 16:43LENAmurni besar56.82
4421/01 16:43P4RK1T717murni kecil56.82
4521/01 16:43PANDITANJmurni kecil11.36
4621/01 16:43AZIZAH28murni kecil113.64
4721/01 16:43PENYUJP88murni besar113.64
4821/01 16:43DEN76murni besar113.64
4921/01 16:43MUJI73murni besar56.82
5021/01 16:43M4ESTROmurni besar113.64